Regional Weather Roundup
Issued by NWS

Home | Current Version | Previous Version | Graphics & Text | Print | Product List | Glossary On
Versions: 1 2 3 4 5 6 7 8 9 10 11 12 13 14 15 16 17 18 19 20 21 22 23 24 25 26 27 28 29 30 31 32 33 34 35 36 37 38 39 40 41 42 43 44 45 46 47 48 49 50
000
ASUS45 KTFX 260604
RWRMT
MONTANA HOURLY WEATHER ROUNDUP
NATIONAL WEATHER SERVICE GREAT FALLS MT
1104 PM MST SUN JAN 25 2015

NOTE: "FAIR" INDICATES FEW OR NO CLOUDS BELOW 12000 FEET WITH NO
SIGNIFICANT WEATHER AND/OR OBSTRUCTIONS TO VISIBILITY.

* THESE STATIONS ARE NOT UNDER NWS QUALITY CONTROL. THEY DO NOT
   REPORT WEATHER SUCH AS PRECIPITATION OR FOG.

MTZ001>007-043-260700-
WEST OF THE DIVIDE
CITY           SKY/WX    TMP DP  RH WIND       PRES   REMARKS
KALISPELL      FOG       28  27  96 CALM      30.18R VSB 1/2
MISSOULA       CLEAR     34  28  79 CALM      30.26R
BUTTE          CLEAR     30  25  82 SE6       30.31S WCI  24
MULLAN PASS    CLEAR     43  27  53 S10       30.24S
* ANACONDA     CLEAR     52  23  32 SW17G28    N/A
* ESSEX        N/A       30  29  96 SW1        N/A
* LINCOLN      N/A       31  27  85 N1         N/A
* LOOKOUT PASS N/A       35  32  89 SE2        N/A
* POLSON       N/A       44  31  60 SE2        N/A
* RONAN APT    PTCLDY    34  34 100 N/A        N/A
* SEELEY LAKE  N/A       27  25  92 SE1        N/A
* THOMP F APT  CLEAR     30  28  92 NE3        N/A
$$

MTZ008-052>055-260700-
SOUTHWEST MONTANA
CITY           SKY/WX    TMP DP  RH WIND       PRES   REMARKS
BOZEMAN        CLOUDY    43  28  56 SW5       30.27R
DILLON         PTCLDY    37  27  67 S13       30.33R WCI  29
* W YELLOWSTON CLOUDY    30  29  96 N/A        N/A
* THREE FORKS  CLOUDY    39  36  89 N/A        N/A
* BOULDER HILL N/A       47  21  36 SW6        N/A
* MONIDA PASS  N/A       23  23 100 SE7        N/A   WCI  15
* RAYNOLDS PAS N/A       29  11  47 SE15       N/A   WCI  18
* WHITEHALL    N/A       40  24  53 SW4G14     N/A
* WISE RIVER   N/A       34  25  70 SW3G11     N/A
$$

MTZ009>010-012-014-046-048-049-054-260700-
EAST SLOPES AND CENTRAL MONTANA
CITY           SKY/WX    TMP DP  RH WIND       PRES   REMARKS
CUT BANK       PTCLDY    43  28  56 W9        30.03R
GREAT FALLS    CLOUDY    54  28  37 SW22      30.08S
HELENA         MOCLDY    41  30  65 W3        30.20S
MALMSTROM AFB  CLOUDY    52  30  43 SW22      30.09S
* DEARBORN     N/A       58  26  29 S24G34     N/A
* EAST GLACIER N/A       48  26  42 SW15G25    N/A
* MONARCH      N/A       50  23  35 SW15G20    N/A
* PENDROY      N/A       45  29  54 W8         N/A
* ROGERS PASS  N/A       45  23  42 SE10G17    N/A
* SWEET GRASS  N/A       47  29  50 W17        N/A
$$

MTZ011-013-016-021-035-040-045-047-050-051-260700-
NORTH CENTRAL MONTANA
CITY           SKY/WX    TMP DP  RH WIND       PRES   REMARKS
HAVRE          CLEAR     45  34  65 SW17      29.97R
LEWISTOWN      MOCLDY    46  30  54 CALM      30.06S
* N BAR RANCH  CLEAR     55  27  34 NW22G29   30.03R
* CHESTER      N/A       46  31  56 W5G11      N/A
* DENTON       N/A       48  30  50 SW21G26    N/A
* GEYSER       N/A       51  25  36 N2G8       N/A
* JUDITH GAP   N/A       47  29  50 W20G27     N/A
* LOMA         N/A       50  33  52 SW20G27    N/A
$$

MTZ017>020-022>027-061-062-260700-
NORTHEAST MONTANA
CITY           SKY/WX    TMP DP  RH WIND       PRES   REMARKS
GLASGOW        CLEAR     37  32  82 NW3       29.92R
GLENDIVE       CLEAR     37  32  82 SE3       29.94R
JORDAN         PTCLDY    37  34  89 NW7       29.97R WCI  32
SIDNEY         PTCLDY    43  34  71 W9        29.90R
WOLF POINT     CLEAR     37  34  89 W10       29.91R WCI  30
* BEAVER HILL  N/A       40  34  79 W6         N/A   WCI  36
* CIRCLE       N/A       40  35  82 W4         N/A
* LINDSAY DVD  N/A       44  34  68 W19G26     N/A
* NAVAJO       N/A       41  31  68 W19G24     N/A
* SACO         N/A       35  32  89 NW8        N/A   WCI  28
$$

MTZ028>042-056>058-260700-
SOUTHCENTRAL AND SOUTHEAST MONTANA
CITY           SKY/WX    TMP DP  RH WIND       PRES   REMARKS
BAKER          PTCLDY    37  32  82 W15       29.94R WCI  28
BILLINGS       CLOUDY    52  30  43 SW14G21   30.08R
LIVINGSTON     CLOUDY    54  27  35 SW30G38   30.20F
MILES CITY     PTCLDY    43  34  71 W8        29.98R
* LAUREL APT   CLOUDY    43  23  45 S8         N/A
* ROUNDUP APT  CLOUDY    57  28  33 SW23G33    N/A
* ALZADA       N/A       40  32  73 SW8        N/A   WCI  35
* HYSHAM       N/A       48  26  42 W4         N/A
* LAME DEER    N/A       52  29  41 W16G24     N/A
* REED POINT   N/A       59  30  33 SW8G16     N/A
* ROSCOE HILL  N/A       58  16  19 W8G14      N/A
$$

REGIONAL REPORTS...DAKOTAS
CITY           SKY/WX    TMP DP  RH WIND       PRES   REMARKS
WILLISTON      MOCLDY    39  34  82 SW9       29.84R WCI  33
DICKINSON      PTCLDY    41  34  76 W16       29.82R
CROSBY         CLEAR     37  36  96 W16       29.79S WCI  28
WATFORD CITY   CLEAR     39  36  89 W12       29.83R WCI  32
BISMARCK       PTCLDY    34  30  85 SW5       29.77F WCI  29
GRAND FORKS    MOCLDY    30  27  89 S7        29.70R WCI  23
FARGO          LGT SNOW  28  25  89 S21       29.77F WCI  14
BUFFALO SD     CLEAR     37  32  82 W15       29.87R WCI  28
RAPID CITY     PTCLDY    45  30  56 NW10      29.95S
$$

REGIONAL REPORTS...WYOMING/IDAHO/WASHINGTON
CITY           SKY/WX    TMP DP  RH WIND       PRES   REMARKS
GILLETTE       CLOUDY    41  28  60 W8        30.08R
SHERIDAN       CLOUDY    41  28  60 SW7       30.08R
CODY           CLOUDY    55  23  29 W14G20    30.19S
YELLOWSTONE LA MOCLDY    27  25  92 CALM      30.47S
SALMON         CLEAR     21  19  92 CALM      30.42S
MULLAN PASS    CLEAR     43  27  53 S10       30.24S
SAND POINT     FOG       34  34 100 CALM      30.20F VSB M1/4
SPOKANE        FOG       39  39 100 NE7       30.17S VSB M1/4 WCI  34
$$

REGIONAL REPORTS...ALBERTA
CITY           SKY/WX    TMP DP  RH WIND       PRES   REMARKS
EDMONTON       FAIR      36  28  73 W3        29.84F

$$



USA.gov is the U.S. government's official web portal to all federal, state and local government web resources and services.